638  
SXUS52 KJAX 192213  
OSOJAX  
OTHER SURFACE OBSERVATIONS  
NATIONAL WEATHER SERVICE JACKSONVILLE FL  
600 PM EDT SUN MAY 19 2019  
 
FLZ020>025-030>033-035>038-040-192300-   
..FLORIDA
 
 
 
CITY SKY/WX TMP DP RH WIND PRES REMARKS  
CECIL FIELD MOSUNNY 91 63 38 SE12 29.98F  
HERLONG FIELD NOT AVBL  
FERNANDINA BCH NOT AVBL  
LAKE CITY NOT AVBL  
JUNIPER SPGS NOT AVBL  
BUNNELL NOT AVBL  
KEYSTONE HGTS CLEAR 90 48 24 S7 29.98S  

 
 
GAZ132>136-149>154-162>166-192300-   
..GEORGIA
 
 
 
CITY SKY/WX TMP DP RH WIND PRES REMARKS  
JESUP FAIR 90 63 40 S6 30.00F  
HOMERVILLE FAIR 90 54 29 SE8 29.99S  
SWAINSBORO FAIR 90 50 25 SW5 30.00F  
CORDELE FAIR 88 58 36 SW5 30.00S  
EASTMAN FAIR 87 62 43 CALM 30.01F  

 
 
PLEASE NOTE: THESE OBSERVATIONS ARE NOT QUALITY CONTROLLED AND MAY  
NOT BE AVAILABLE AT ALL TIMES.  

 
 
 
CLICK HERE TO GO TO PREVIOUS BULLETINS.

The Nexlab FL Page
The Nexlab GA Page Main Text Page